| time (UTC) | temp C | wind direction | speed KPH | gust KPH | rain 1hr cm | rain 24hr cm | rain mn cm | humidity % | barometer mb |
| 20260904131545 | 26 | 90 | 0.0 | 0.0 | 0.00 | 0.10 | 0.03 | 99 | 1014.3 |
| 20260904130044 | 26 | 90 | 0.0 | 0.0 | 0.00 | 0.10 | 0.03 | 99 | 1014.2 |
| 20260904124548 | 25 | 90 | 0.0 | 0.0 | 0.00 | 0.10 | 0.03 | 99 | 1014.2 |
| 20260904123104 | 25 | 90 | 0.0 | 0.0 | 0.00 | 0.10 | 0.03 | 99 | 1014.1 |
| 20260904121542 | 25 | 90 | 0.0 | 0.0 | 0.03 | 0.10 | 0.03 | 99 | 1014.0 |
| 20260904120040 | 25 | 90 | 0.0 | 3.2 | 0.03 | 0.10 | 0.03 | 98 | 1013.7 |
| 20260904114540 | 25 | 57 | 0.0 | 0.0 | 0.03 | 0.10 | 0.03 | 98 | 1013.5 |
| 20260904113049 | 26 | 57 | 0.0 | 0.0 | 0.03 | 0.10 | 0.03 | 98 | 1013.6 |
| 20260904111538 | 26 | 57 | 0.0 | 0.0 | 0.00 | 0.08 | 0.00 | 98 | 1013.6 |
| 20260904110042 | 26 | 57 | 0.0 | 0.0 | 0.00 | 0.08 | 0.00 | 98 | 1013.6 |
| 20260904104537 | 26 | 57 | 0.0 | 0.0 | 0.00 | 0.08 | 0.00 | 98 | 1013.4 |
| 20260904103037 | 26 | 57 | 0.0 | 0.0 | 0.00 | 0.08 | 0.00 | 98 | 1013.3 |
| 20260904101536 | 26 | 57 | 0.0 | 0.0 | 0.00 | 0.08 | 0.00 | 98 | 1013.2 |
| 20260904100041 | 26 | 57 | 0.0 | 0.0 | 0.00 | 0.08 | 0.00 | 98 | 1013.3 |
| 20260904094532 | 26 | 57 | 0.0 | 0.0 | 0.00 | 0.08 | 0.00 | 98 | 1013.3 |
| 20260904093041 | 26 | 57 | 0.0 | 0.0 | 0.00 | 0.08 | 0.00 | 98 | 1013.2 |
| 20260904091530 | 26 | 40 | 0.0 | 6.4 | 0.00 | 0.08 | 0.00 | 98 | 1013.1 |
| 20260904090030 | 26 | 65 | 0.0 | 0.0 | 0.00 | 0.08 | 0.00 | 98 | 1013.1 |
| 20260904084529 | 26 | 84 | 0.0 | 0.0 | 0.00 | 0.08 | 0.00 | 98 | 1013.1 |
| 20260904083027 | 26 | 84 | 0.0 | 0.0 | 0.00 | 0.08 | 0.00 | 98 | 1013.2 |
| 20260904081526 | 26 | 84 | 0.0 | 0.0 | 0.00 | 0.08 | 0.00 | 98 | 1013.2 |
| 20260904080025 | 26 | 84 | 0.0 | 0.0 | 0.00 | 0.08 | 0.00 | 98 | 1013.4 |
| 20260904074524 | 26 | 84 | 0.0 | 0.0 | 0.00 | 0.08 | 0.00 | 98 | 1013.5 |
| 20260904073024 | 25 | 84 | 0.0 | 0.0 | 0.00 | 0.08 | 0.00 | 98 | 1013.5 |
| 20260904071523 | 25 | 101 | 0.0 | 0.0 | 0.00 | 0.08 | 0.00 | 98 | 1013.5 |
| 20260904070037 | 26 | 130 | 0.0 | 0.0 | 0.00 | 0.08 | 0.00 | 98 | 1013.6 |
| 20260904064522 | 26 | 130 | 0.0 | 0.0 | 0.00 | 0.08 | 0.00 | 98 | 1013.7 |
| 20260904063022 | 26 | 130 | 0.0 | 0.0 | 0.00 | 0.08 | 0.00 | 98 | 1013.7 |
| 20260904061520 | 25 | 130 | 0.0 | 4.8 | 0.00 | 0.08 | 0.00 | 98 | 1013.8 |
| 20260904060022 | 25 | 130 | 1.6 | 6.4 | 0.00 | 0.08 | 0.00 | 98 | 1013.5 |
| 20260904054529 | 25 | 119 | 0.0 | 0.0 | 0.00 | 0.08 | 0.00 | 98 | 1013.6 |
| 20260904053018 | 25 | 110 | 0.0 | 0.0 | 0.00 | 0.08 | 0.00 | 97 | 1013.4 |
| 20260904051516 | 25 | 110 | 0.0 | 0.0 | 0.00 | 0.08 | 0.00 | 97 | 1013.3 |
| 20260904050017 | 25 | 129 | 0.0 | 0.0 | 0.00 | 0.08 | 0.00 | 97 | 1013.4 |
| 20260904044524 | 26 | 139 | 0.0 | 0.0 | 0.00 | 0.08 | 0.08 | 97 | 1013.5 |
| 20260904043016 | 26 | 148 | 0.0 | 6.4 | 0.00 | 0.08 | 0.08 | 96 | 1013.5 |
| 20260904041512 | 26 | 132 | 1.6 | 8.0 | 0.00 | 0.08 | 0.08 | 96 | 1013.6 |
| 20260904040013 | 26 | 116 | 3.2 | 6.4 | 0.00 | 0.08 | 0.08 | 96 | 1013.6 |
| 20260904034527 | 26 | 126 | 4.8 | 11.3 | 0.00 | 0.08 | 0.08 | 96 | 1013.6 |
| 20260904033012 | 25 | 134 | 6.4 | 11.3 | 0.00 | 0.08 | 0.08 | 96 | 1013.4 |
| 20260904031514 | 25 | 111 | 4.8 | 9.7 | 0.00 | 0.08 | 0.08 | 96 | 1013.5 |
| 20260904030011 | 25 | 126 | 6.4 | 12.9 | 0.00 | 0.08 | 0.08 | 96 | 1013.3 |
| 20260904024511 | 26 | 117 | 8.0 | 12.9 | 0.00 | 0.08 | 0.08 | 95 | 1013.2 |
| 20260904023010 | 26 | 109 | 6.4 | 12.9 | 0.00 | 0.08 | 0.08 | 95 | 1013.4 |
| 20260904021509 | 26 | 113 | 8.0 | 14.5 | 0.00 | 0.08 | 0.08 | 95 | 1013.2 |
| 20260904020009 | 26 | 117 | 9.7 | 12.9 | 0.00 | 0.08 | 0.08 | 95 | 1013.0 |
| 20260904014509 | 26 | 112 | 4.8 | 12.9 | 0.00 | 0.08 | 0.08 | 95 | 1013.0 |
| 20260904013009 | 26 | 101 | 6.4 | 11.3 | 0.00 | 0.08 | 0.08 | 95 | 1012.8 |
| 20260904011521 | 26 | 107 | 8.0 | 12.9 | 0.00 | 0.08 | 0.08 | 94 | 1012.6 |
| 20260904010007 | 26 | 120 | 6.4 | 12.9 | 0.00 | 0.08 | 0.08 | 94 | 1012.5 |
| 20260904004506 | 26 | 108 | 6.4 | 14.5 | 0.00 | 0.08 | 0.08 | 93 | 1012.4 |
| 20260904003006 | 26 | 101 | 9.7 | 16.1 | 0.00 | 0.08 | 0.08 | 92 | 1012.4 |
| 20260904001505 | 26 | 91 | 9.7 | 17.7 | 0.00 | 0.08 | 0.08 | 92 | 1012.2 |
| 20260904000007 | 26 | 69 | 8.0 | 17.7 | 0.00 | 0.08 | 0.08 | 91 | 1012.3 |
| 20260903234505 | 26 | 104 | 14.5 | 19.3 | 0.00 | 0.08 | 0.08 | 90 | 1012.4 |
| 20260903233015 | 26 | 94 | 11.3 | 20.9 | 0.00 | 0.08 | 0.08 | 91 | 1012.6 |
| 20260903231504 | 26 | 80 | 12.9 | 17.7 | 0.00 | 0.08 | 0.08 | 90 | 1012.9 |
| 20260903230003 | 26 | 72 | 14.5 | 22.5 | 0.00 | 0.08 | 0.08 | 90 | 1012.8 |
| 20260903224504 | 26 | 99 | 19.3 | 29.0 | 0.00 | 0.08 | 0.08 | 89 | 1012.6 |
| 20260903223003 | 26 | 88 | 8.0 | 19.3 | 0.00 | 0.08 | 0.08 | 90 | 1012.7 |
| 20260903221502 | 26 | 78 | 11.3 | 19.3 | 0.00 | 0.08 | 0.08 | 90 | 1012.3 |
| 20260903220122 | 26 | 96 | 11.3 | 17.7 | 0.00 | 0.08 | 0.08 | 90 | 1012.3 |
| 20260903214600 | 26 | 103 | 11.3 | 16.1 | 0.00 | 0.08 | 0.08 | 91 | 1012.4 |
| 20260903213103 | 26 | 91 | 8.0 | 14.5 | 0.00 | 0.08 | 0.08 | 92 | 1012.7 |
| 20260903211600 | 26 | 78 | 6.4 | 16.1 | 0.00 | 0.08 | 0.08 | 93 | 1012.8 |
| 20260903210106 | 25 | 86 | 8.0 | 20.9 | 0.00 | 0.08 | 0.08 | 94 | 1012.9 |
| 20260903204556 | 25 | 135 | 14.5 | 20.9 | 0.00 | 0.08 | 0.08 | 93 | 1013.6 |
| 20260903203127 | 25 | 91 | 14.5 | 37.0 | 0.03 | 0.08 | 0.08 | 93 | 1013.6 |
| 20260903201553 | 25 | 109 | 27.4 | 40.2 | 0.03 | 0.08 | 0.08 | 93 | 1013.5 |
| 20260903200049 | 25 | 99 | 22.5 | 32.2 | 0.08 | 0.08 | 0.08 | 89 | 1013.9 |
| 20260903194555 | 25 | 97 | 16.1 | 29.0 | 0.08 | 0.08 | 0.08 | 90 | 1013.3 |
| 20260903193046 | 26 | 99 | 22.5 | 33.8 | 0.05 | 0.05 | 0.05 | 86 | 1013.4 |
| 20260903191543 | 28 | 123 | 20.9 | 30.6 | 0.05 | 0.05 | 0.05 | 77 | 1013.1 |
| 20260903190042 | 28 | 128 | 11.3 | 19.3 | 0.00 | 0.00 | 0.00 | 74 | 1013.1 |
| 20260903184541 | 32 | 174 | 9.7 | 17.7 | 0.00 | 0.00 | 0.00 | 66 | 1013.1 |
| 20260903183043 | 33 | 153 | 3.2 | 17.7 | 0.00 | 0.00 | 0.00 | 67 | 1013.2 |
| 20260903181535 | 32 | 136 | 4.8 | 11.3 | 0.00 | 0.00 | 0.00 | 68 | 1013.5 |
| 20260903180030 | 32 | 146 | 9.7 | 19.3 | 0.00 | 0.00 | 0.00 | 70 | 1013.7 |
| 20260903174529 | 32 | 175 | 8.0 | 14.5 | 0.00 | 0.00 | 0.00 | 74 | 1013.8 |
| 20260903173030 | 32 | 201 | 6.4 | 17.7 | 0.00 | 0.00 | 0.00 | 72 | 1013.9 |
| 20260903171525 | 31 | 244 | 6.4 | 14.5 | 0.00 | 0.00 | 0.00 | 76 | 1014.3 |
| 20260903170026 | 31 | 169 | 9.7 | 16.1 | 0.00 | 0.00 | 0.00 | 76 | 1014.6 |
| 20260903164524 | 31 | 198 | 12.9 | 24.1 | 0.00 | 0.00 | 0.00 | 75 | 1014.8 |
| 20260903163022 | 31 | 202 | 16.1 | 24.1 | 0.00 | 0.00 | 0.00 | 76 | 1014.7 |
| 20260903161520 | 31 | 173 | 14.5 | 22.5 | 0.00 | 0.00 | 0.00 | 78 | 1014.6 |
| 20260903160029 | 30 | 214 | 12.9 | 22.5 | 0.00 | 0.00 | 0.00 | 81 | 1014.6 |
| 20260903154517 | 30 | 250 | 17.7 | 29.0 | 0.00 | 0.00 | 0.00 | 82 | 1014.6 |
| 20260903153012 | 30 | 225 | 16.1 | 25.7 | 0.00 | 0.00 | 0.00 | 85 | 1014.6 |
| 20260903151509 | 29 | 202 | 17.7 | 27.4 | 0.00 | 0.00 | 0.00 | 86 | 1014.7 |
| 20260903150012 | 29 | 227 | 17.7 | 29.0 | 0.00 | 0.00 | 0.00 | 86 | 1014.7 |
| 20260903144518 | 28 | 218 | 16.1 | 30.6 | 0.00 | 0.00 | 0.00 | 89 | 1014.6 |
| 20260903143003 | 28 | 182 | 12.9 | 29.0 | 0.00 | 0.00 | 0.00 | 91 | 1014.8 |
| 20260903141601 | 28 | 196 | 11.3 | 22.5 | 0.00 | 0.00 | 0.00 | 92 | 1014.9 |
| 20260903140059 | 27 | 178 | 6.4 | 14.5 | 0.00 | 0.00 | 0.00 | 94 | 1014.9 |
| 20260903134559 | 27 | 173 | 3.2 | 8.0 | 0.00 | 0.00 | 0.00 | 95 | 1014.8 |
| 20260903133101 | 27 | 159 | 4.8 | 9.7 | 0.00 | 0.00 | 0.00 | 95 | 1014.6 |